Location: Observatory
(49.4490°N, 2.6360°W)
Time: 00:49:18
(UTC+01:00)

DIWATA 2B (PO-101) - Pass Details

Date: 22 April 2025
Orbit: 567 x 578 km, 98.1° (Epoch: 16 May)

Event Time Altitude Azimuth Distance (km) Brightness Sun altitude
Rises 05:09:40 0° 153° (SSE) 2,763 ? -8.9°
Reaches altitude 10° 05:11:50 10° 149° (SSE) 1,869 ? -8.6°
Maximum altitude 05:15:47 55° 71° (ENE) 689 ? -8.0°
Drops below altitude 10° 05:19:45 10° 354° (N) 1,879 ? -7.5°
Sets 05:21:56 0° 350° (N) 2,781 ? -7.2°
